Location: Herm
(49.4830°N, 2.4500°W)
Time: 13:09:05
(UTC+01:00)

N. Korean satellite - Visible Passes

Search period start: 03 October 2022 00:00
Search period end: 13 October 2022 00:00
Orbit: 426 x 468 km, 97.3° (Epoch: 02 October)

Date Brightness Start Highest point End Pass type
(mag) Time Alt. Az. Time Alt. Az. Time Alt. Az.
03 Oct 7.8 06:12:21 10° NNE 06:15:28 41° E 06:18:35 10° S visible
04 Oct 9.6 05:37:15 10° NE 05:39:22 16° E 05:41:28 10° SE visible
05 Oct 6.5 06:33:02 10° NNE 06:36:19 80° ESE 06:39:35 10° S visible
06 Oct 8.7 05:57:21 10° NE 06:00:12 27° E 06:03:03 10° SSE visible
07 Oct 10.0 05:23:02 10° ENE 05:23:52 11° E 05:24:41 10° ESE visible
08 Oct 7.4 06:17:35 10° NNE 06:20:47 49° E 06:23:57 10° S visible
09 Oct 9.4 05:42:04 10° NE 05:44:26 18° E 05:46:46 10° SE visible
10 Oct 6.3 06:37:47 10° NNE 06:41:04 89° WNW 06:44:21 10° SSW visible
11 Oct 8.4 06:01:46 10° NNE 06:04:43 30° E 06:07:40 10° SSE visible
12 Oct 9.8 05:26:46 10° ENE 05:28:07 12° E 05:29:29 10° ESE visible
